Regional Weather Roundup
Issued by NWS Kansas City/Pleasant Hill, MO

Home | Current Version | Previous Version | Graphics & Text | Print | Product List | Glossary Off
Versions: 1 2 3 4 5 6 7 8 9 10 11 12 13 14 15 16 17 18 19 20 21 22 23 24 25 26 27 28 29 30 31 32 33 34 35 36 37 38 39 40 41 42 43 44 45 46 47 48 49 50

000
ASUS43 KEAX 060910
RWREAX

WEATHER ROUNDUP FOR EASTERN KANSAS AND NORTHWEST MISSOURI
NATIONAL WEATHER SERVICE KANSAS CITY/PLEASANT HILL MO
300 AM CST SAT FEB 06 2016

KSZ040-057-103>105-MOZ028-029-037-043-061000-
...KANSAS CITY METROPOLITAN AREA...

CITY           SKY/WX    TMP DP  RH WIND       PRES   REMARKS
K.C. INTL      CLEAR     30  24  78 N6        30.25R WCI  24
K.C. DOWNTOWN  PTCLDY    32  25  75 NW6       30.26R WCI  26
LEES SUMMIT    CLEAR     35  23  61 S9        30.23F WCI  28
OLATHE - IXD   CLEAR     31  24  75 W3        30.25R
OLATHE - OJC   CLEAR     33  23  66 S5        30.24S WCI  29
LAWRENCE       CLEAR     25  23  92 NW7       30.26R WCI  17

$$

MOZ001>008-011>017-020>025-030>033-038>040-044>046-053-054-061000-
...NORTHERN AND CENTRAL MISSOURI...

CITY           SKY/WX    TMP DP  RH WIND       PRES   REMARKS
ST. JOSEPH     CLEAR     24  21  88 N3        30.27S
MOSBY          SUNNY     28  27  93 CALM      30.26S
WARRENSBURG    CLEAR     34  23  64 S6        30.25F WCI  29
WHITEMAN AFB   PTCLDY    33  22  64 S7        30.24F WCI  27
CLINTON          N/A     32  28  86 S6        30.27F WCI  26
SEDALIA        MOCLDY    35  21  56 S8        30.27F WCI  29
WARSAW         NOT AVBL
CHILLICOTHE      N/A     26  23  88 CALM      30.28S
KIRKSVILLE     CLOUDY    27  19  72 S6        30.26F WCI  20

$$

MOZ041-047>049-056>058-063>065-088>090-097-061000-
...EASTERN AND SOUTHERN MISSOURI...

CITY           SKY/WX    TMP DP  RH WIND       PRES   REMARKS
ST. LOUIS INTL CLOUDY    32  22  66 E3        30.31F
SPIRIT OF STL  PTCLDY    26  22  84 CALM      30.30F
COLUMBIA       CLOUDY    32  19  58 SE8       30.27F WCI  25
JEFFERSON CITY CLOUDY    29  21  72 CALM      30.30S
ROLLA          CLEAR     30  19  63 S9        30.26S WCI  22
OSAGE BEACH    PTCLDY    30  19  64 E3        30.29S
SPRINGFIELD    CLOUDY    33  20  58 S7        30.27F WCI  27
BRANSON        CLOUDY    39  14  35 CALM      30.30S
JOPLIN         CLEAR     41  19  41 S12       30.28S WCI  34
WEST PLAINS    PTCLDY    34  14  43 SW5       30.31S WCI  30

$$

IAZ060-094-KSZ022-034>040-054-083-096-NEZ052-066-093-061000-
...KANSAS...SOUTHEAST NEBRASKA AND IOWA...

CITY           SKY/WX    TMP DP  RH WIND       PRES   REMARKS
TOPEKA         CLEAR     26  21  81 CALM      30.27S
MANHATTAN      CLEAR     24  21  88 CALM      30.29R
EMPORIA        PTCLDY    28  23  81 W5        30.26S WCI  23
CHANUTE        PTCLDY    33  26  75 W5        30.28R WCI  29
WICHITA        PTCLDY    32  26  78 NW3       30.30R
OMAHA          CLOUDY    31  29  92 NW3       30.27R
LINCOLN        CLEAR     31  28  89 CALM      30.29R
FALLS CITY     CLEAR     28  25  88 W5        30.27R WCI  23
LAMONI         CLEAR     27  21  78 SW5       30.23F WCI  22
DES MOINES     CLOUDY    30  25  81 SW6       30.24S WCI  24

$$





USA.gov is the U.S. government's official web portal to all federal, state and local government web resources and services.